Starlink 30168

operational
NORAD ID: 57513 Int'l Des: 2023-113 Owner: SPXS Country: US Constellation: starlink
LEOCIRCULAR

Starlink 30168について

説明を読み込み中...

リアルタイム位置

3D地球を読み込み中...

次回通過

高度履歴

Altitude vs Time

uPlot chart will show altitude changes over time

軌道要素

1 57513U 23113U 25305.84413869 -.00001596 00000-0 -10313-3 0 9993
2 57513 43.0029 352.4358 0001057 275.2702 84.8019 15.02522867124262
Epoch: Nov 1, 2025 • Age: 40 hours

現在のステータス

高度 562.3 km
速度 7.59 km/s
衛星直下点 40.33°N, 178.25°E
打ち上げ日 Aug 7, 2023
運用期間 2.2 years
タイプ internet

技術仕様

分類 Payload
質量 730.00 kg
乾燥質量 700.00 kg
総質量 730.00 kg
長さ 0.30 m
直径 4.10 m
スパン 29.00 m
形状 Box + pan
製造者 SPXS
バスタイプ Starlink V2M
フェーズステータス In Orbit
所有者/国 SPXS/US

大規模コンステレーション

Loading constellations...